Погода в Пресновке

Казахстан     54°40′17″N   67°09′29″E
темп.,
°C
ветер,
м/с
пор.,
м/с
влажн.,
%
обл.,
%
осадки,
мм/ч
давл.,
гПа
погр.,
м
2 марта, вт
вт200:00−20з2210088 0.0 101820
03:00−20зюз239998 0.0 101722
06:00−19зюз239897 0.1 101738
09:00−18юз349789 0.1 1016113
12:00−16юз349587 0.1 1016236
15:00−14ююз359385 0.0 1014301
18:00−15ююз379587 0.0 1013180
21:00−17ю4109618 0.0 1013167
3 марта, ср
ср300:00−16ююз5129541 0.0 1012313
03:00−17ююз6139392 0.0 1010324
06:00−17ююз7149296 0.0 1010356
09:00−15ююз71393100 0.1 1008497
12:00−12ююз81492100 0.3 1008616
15:00−9ююз91489100 0.3 1007738
18:00−5ююз81591100 0.4 1006869
21:00−4ююз81591100 0.3 1005747
4 марта, чт
чт400:00−3юз81593100 0.4 1005692
03:00−3ююз71394100 0.2 1003621
06:00−2ююз71395100 0.7 1002646
09:00−1ююз61296100 0.6 1000664
12:000юз71194100 0.9 1000786
15:000юз71097100 0.5 999763
18:00−2з51090100 1.3 1000582
21:00−6з6129298 0.0 1002341
5 марта, пт
пт500:00−9зюз5129081 0.0 1006278
03:00−12зюз512890 0.0 1007212
06:00−13ююз612890 0.0 1008251
09:00−12юз8169171 0.0 1008467
12:00−7юз10179085 0.1 1006874
15:00−2юз121992100 0.3 10051171
18:00−2юз122092100 0.9 10041205
21:00−1юз122092100 0.6 10041109
6 марта, сб
сб600:00−1зюз101688100 0.8 10061049
03:00−2зюз81594100 0.3 1007827
06:00−3з51096100 1.1 1008583
09:00−10з499137 0.1 1011168
12:00−8з5108519 0.1 1013427
15:00−7зюз588524 0.0 1015519
18:00−9юз359360 0.0 101590
21:00−11ююз349196 0.0 101482